BREEZE-KM R/B, 40923

Orbit data source: Space-Track

BREEZE-KM R/B, 40923 is space debris in LEO originally from a launch on Wed, 23 Sep 2015 UTC launched from the Plesetsk Missile And Space Complex (PKMTR). Debris objects in space refer to the collection of defunct objects orbiting the Earth. Examples of debris include non-operational satellites, rocket bodies, and fragments generated from explosions, collisions, or faulty payload assembly.

Loading next visibility...
Identifier
40923, 2015-050D
Orbit
LEO
Last TLE update
17 hours ago
Origin
Manufacturer
Khrunichev
Mission
Spacecraft
Bus & Motor
BRIZ, S5.92
Mass
2,370 kg wet, 2,370 kg dry
Launch date (UTC)
2015-09-23 (10 years ago)
Launch vehicle
Unknown
Launch site
Plesetsk Missile And Space Complex (PKMTR)
Object type
Payload
Rocket body
Debris
Shape & HBR
Hex Cyl + 1 Rod, 4.1 m
Radar Cross Section
10.190 m², Large (>1 m²)

Expand to show TLE details & history

TLE from 17 hours ago
0 BREEZE-KM R/B
1 40923U 15050D   25128.62092689  .00000021  00000-0  43183-4 0  9995
2 40923  82.4891 171.6385 0201842 328.9632  29.9668 12.80436175449793
Epoch: 2025-05-08T14:54Z
Definitive object data (Epoch: 2025-05-08T14:54:08.083Z)
Latitude
-0.00002°
Longitude
81.41602°
Altitude
1,208.301 km
Speed
7.313 km/s
True Right ascension
11h 26m 33s
True Declination
0° 00' 00"
Sunlit
Object was in full shadow at TLE epoch
Visualization TLE readout
Latitude
41.29171°
Longitude
87.55651°
Altitude
1,300.655 km
Speed
7.231 km/s
Apparent Right ascension
08h 29m 36s
Apparent Declination
9° 38' 37"
Sunlit
Object is in daylight
Visualization observer readout
Local Sidereal Time
16:08:33
Azimuth
293.705° NW
Elevation
-12.057°
Doppler factor
1
Orbital elements
Apogee altitude
1,492.738 km
Perigee altitude
1,181.29 km
Semi-major axis
7,715.151 km
Eccentricity
0.0201842
Inclination
82.4891°
RAAN
171.6385°
Arg. of periapsis
328.9632°
True anomaly
31.14782°
Mean anomaly
29.9668°
Eccentric anomaly
30.5547°
Mean motion
3.20278 °/min
BSTAR
0.000043183
Orbital period
112.4 mins
Loading maneuver chart data...
Loading SW <> Apogee altitude chart data...
Loading historical data...
Loading historical data...
Loading historical data...
Loading historical data...
Loading historical data...
Loading historical data...
Loading historical data...
Other satellites on launch #50 in the year 2015 (2015-09-23 UTC)

BREEZE-KM R/B Visibility forecast

Observer location: undefined°, undefined°

Span
Click to sort rows by Start time (UTC) header in descending order
Start Az.
Max El. time (UTC)
Max El. Az.
Max El.
End time (UTC)
End Az.
16 mins2025-05-09 13:59:27.680Z1.05° NNE2025-05-09 14:07:27.680Z68.606° E38.77°2025-05-09 14:15:27.680Z150.882° SSE
13 mins2025-05-09 15:54:27.680Z330.329° NNW2025-05-09 16:00:27.680Z279.876° WNW28.964°2025-05-09 16:07:27.680Z219.156° SW
13 mins2025-05-10 02:38:27.680Z150.153° SSE2025-05-10 02:44:27.680Z81.676° E33.719°2025-05-10 02:51:27.680Z20.874° NNE
12 mins2025-05-10 04:32:27.680Z230.823° WSW2025-05-10 04:37:27.680Z286.103° WNW30.864°2025-05-10 04:44:27.680Z351.579° N
|